Skip Page Navigation
NASA JPL Caltech
NASA Logo - Jet Propulsion Laboratory + View the NASA Portal
+ Center for Near-Earth Object Studies
JPL Home Earth Solar System Stars & Galaxies Technology
JPL Solar System Dynamics
BODIES ORBITS EPHEMERIDES TOOLS PHYSICAL DATA DISCOVERY FAQ SITE MAP
JPL Small-Body Database Browser
Search: [ help ]  
101664 (1999 CS88)
Classification: Main-belt Asteroid          SPK-ID: 2101664
Ephemeris | Orbit Diagram | Orbital Elements | Mission Design | Physical Parameters | Discovery Circumstances | Close-Approach Data ]

[ show orbit diagram ]
Orbital Elements at Epoch 2459000.5 (2020-May-31.0) TDB
Reference: JPL 17 (heliocentric ecliptic J2000)
 Element Value Uncertainty (1-sigma)   Units 
e .07323351433804341 4.8506e-08  
a 2.993917535502891 2.7405e-08 au
q 2.77466243273972 1.5017e-07 au
i 11.01875192536689 5.5963e-06 deg
node 64.16511730647163 3.5665e-05 deg
peri 47.63176031541281 7.5728e-05 deg
M 58.51618575406931 6.2151e-05 deg
tp 2458692.938700709675
(2019-Jul-28.43870071)
0.00032677 TDB
period 1892.161396333274
5.18
2.598e-05
7.113e-08
d
yr
n .1902586114998574 2.6123e-09 deg/d
Q 3.213172638266061 2.9412e-08 au
  Orbit Determination Parameters
   # obs. used (total)      498  
   data-arc span      7769 days (21.27 yr)  
   first obs. used      1999-02-10  
   last obs. used      2020-05-19  
   planetary ephem.      DE431  
   SB-pert. ephem.      SB431-N16  
   condition code      0  
   norm. resid. RMS      .55722  
   source      ORB  
   producer      Otto Matic  
   solution date      2020-Nov-12 19:59:12  

Additional Information
 Earth MOID = 1.80471 au 
 Jupiter MOID = 1.97925 au 
 T_jup = 3.223 
[ show covariance matrix ]

Ephemeris | Orbit Diagram | Orbital Elements | Mission Design | Physical Parameters | Discovery Circumstances | Close-Approach Data ]

Physical Parameter Table
Parameter Symbol Value Units Sigma Reference Notes
absolute magnitude H 15.1   n/a MPO469023  

101664 (1999 CS88)          Discovered 1999-Feb-10 by LINEAR at Socorro
Reference: 20051019/Numbers.arcLast Updated: 2005-10-26

[ show close-approach data ]
Alternate Designations
 1999 CS88 = 2003 YC7 
Ephemeris | Orbit Diagram | Orbital Elements | Mission Design | Physical Parameters | Discovery Circumstances | Close-Approach Data ]
ABOUT SSD CREDITS/AWARDS PRIVACY/COPYRIGHT GLOSSARY LINKS
FirstGov 2020-Nov-26 22:51 UT
(server date/time)  
NASA Home Page
Site Manager:   Ryan S. Park
Webmaster  Alan B. Chamberlin